Regional Weather Roundup
Issued by NWS

Home | Current Version | Previous Version | Graphics & Text | Print | Product List | Glossary On
Versions: 1 2 3 4 5 6 7 8 9 10 11 12 13 14 15 16 17 18 19 20 21 22 23 24 25 26 27 28 29 30 31 32 33 34 35 36 37 38 39 40 41 42 43 44 45 46 47 48 49 50
000
ASUS43 KMKX 291411
RWRWI

WISCONSIN REGIONAL WEATHER ROUNDUP
NATIONAL WEATHER SERVICE MILWAUKEE/SULLIVAN WI
900 AM CDT FRI JUL 29 2016

NOTE: "FAIR" INDICATES FEW OR NO CLOUDS BELOW 12,000 FEET WITH NO
SIGNIFICANT WEATHER AND/OR OBSTRUCTIONS TO VISIBILITY.

WIZ001-002-006>008-014>016-023>028-291500-
NORTHWEST WISCONSIN

CITY           SKY/WX    TMP DP  RH WIND       PRES   REMARKS
SUPERIOR ARPT  SUNNY     61  58  90 CALM      30.12S
ASHLAND        SUNNY     65  59  81 NE6       30.12F
HAYWARD        SUNNY     63  55  75 NE6       30.11S
SIREN          NOT AVBL
CUMBERLAND     SUNNY     61  52  72 NE8       30.10S
RICE LAKE      SUNNY     62  52  71 NE8       30.10F
CHETEK         SUNNY     64  52  65 NE8       30.09S
LADYSMITH      SUNNY     64  53  69 NE9       30.11S
EAU CLAIRE     MOSUNNY   66  55  67 NE6       30.06S
MENOMONIE      SUNNY     66  55  66 N6        30.07S
NEW RICHMOND   SUNNY     66  51  58 NE9       30.09R
OSCEOLA        SUNNY     66  56  70 NE9       30.11S
$$

WIZ003>005-009-010-017-018-291500-
NORTH CENTRAL WISCONSIN

CITY           SKY/WX    TMP DP  RH WIND       PRES   REMARKS
MANITOWISH WTR SUNNY     63  56  80 NE6       30.11S
ARBOR VITAE    SUNNY     62  55  75 NE6       30.10S
WOODRUFF       SUNNY     62  55  75 NE6       30.10S
RHINELANDER    SUNNY     63  54  72 VRB6      30.10S
EAGLE RIVER    SUNNY     63  53  71 E7        30.10S
LAND O LAKES   SUNNY     62  54  75 NE6       30.12F
PHILLIPS       SUNNY     62  56  81 NE5       30.10S
TOMAHAWK       SUNNY     62  54  75 NE3       30.09F
MEDFORD        SUNNY     62  55  75 NE7       30.08S
MERRILL        SUNNY     62  54  74 NE6       30.08S
$$

WIZ029-030-035-036-043>047-291500-
CENTRAL WISCONSIN

CITY           SKY/WX    TMP DP  RH WIND       PRES   REMARKS
WAUSAU         SUNNY     65  57  75 E8        30.05S
MOSINEE          N/A     64  59  82 E9        30.07S
MARSHFIELD     SUNNY     67  57  70 NE9       30.05R
STEVENS POINT  CLOUDY    61  57  85 E9        30.06R
WAUPACA        CLOUDY    65  61  89 N3        30.04R
WAUTOMA        CLOUDY    62  59  90 NE3       30.04
WISC RAPIDS    CLOUDY    66  56  70 E10       30.06R
CAMP DOUGLAS   CLOUDY    63  58  84 NE5       30.04R
$$

WIZ011>013-019>022-031-037>040-048>050-291500-
NORTHEAST WISCONSIN

CITY           SKY/WX    TMP DP  RH WIND       PRES   REMARKS
ANTIGO         SUNNY     64  57  77 CALM      30.08S
SHAWANO        CLOUDY    65  59  80 NE6       30.06S
OCONTO         CLOUDY    63  63 100 N3        30.04F
STURGEON BAY   PTSUNNY   70  63  78 VRB6      30.05
GREEN BAY      CLOUDY    64  63  96 N8        30.03S
MANITOWOC      CLOUDY    68  63  84 E9        30.02S
APPLETON       CLOUDY    64  63  94 NE7       30.01S
CLINTONVILLE   CLOUDY    63  55  77 NE7       30.04F
OSHKOSH        CLOUDY    67  63  87 NE9       30.01R
$$

WIZ032>034-041-042-053>061-291500-
SOUTHWEST WISCONSIN

CITY           SKY/WX    TMP DP  RH WIND       PRES   REMARKS
LA CROSSE      CLOUDY    66  58  75 N6        30.03R
SPARTA         PTSUNNY   65  58  78 NE6       30.05R
VIROQUA        CLOUDY    63  59  86 NE8       30.03S
BOSCOBEL       CLOUDY    66  61  84 NE7       30.00R
PRAIRIE DU CHI CLOUDY    65  61  86 N7        29.99S
PLATTEVILLE    CLOUDY    66  65  97 NE8       29.99R
$$

WIZ056-057-062-063-064-067-068-291500-
SOUTH CENTRAL WISCONSIN

CITY           SKY/WX    TMP DP  RH WIND       PRES   REMARKS
REEDSBURG      RAIN      60  60  99 NE5       30.03R
BARABOO/DELLS  LGT RAIN  60  57  92 NE5       30.03R
LONE ROCK      CLOUDY    64  60  87 NE8       30.01R
MINERAL POINT  CLOUDY    66  64  94 NE7       30.00R
MADISON        LGT RAIN  65  63  93 NE8       29.98S
MIDDLETON      CLOUDY    65  65  97 NE7       30.00S
WATERTOWN      CLOUDY    67  67 100 NE7       29.99R
MONROE         CLOUDY    66  64  94 NE6       29.98R
JANESVILLE     PTSUNNY   72  70  94 NE8       29.95S
$$

WIZ051-052-058>065-066-070>072-291500-
SOUTHEAST WISCONSIN

CITY           SKY/WX    TMP DP  RH WIND       PRES   REMARKS
MILWAUKEE      CLOUDY    72  64  76 NE13      29.97R
WAUKESHA       CLOUDY    66  64  94 NE9       29.99R
MILWAUKEE/TIMM CLOUDY    70  61  73 NE12      29.99R
RACINE         CLOUDY    73  66  78 E9        29.98R
BURLINGTON     CLOUDY    72  66  82 NE8       29.97R
KENOSHA        CLOUDY    73  66  78 NE12      29.96R
FOND DU LAC    CLOUDY    67  64  90 NE5       30.01R
SHEBOYGAN      CLOUDY    68  64  87 NE10      30.00S
WEST BEND      CLOUDY    68  63  83 NE7       30.00S
JUNEAU         CLOUDY    65  63  93 N7        30.02R
$$

LSZ147-162-291500-
LAKE SUPERIOR

STATION/POSITION TIME  TEMP    WIND        PRES    WAVE
                       AIR SEA DIR/SP/G            HT/PER
                 (UTC) (F)     (DEG/KT/KT) (MB)    (FT/S)
W MID LAKE BUOY  1350   62 61   30/  6/  6 1019.5S   0
DEVILS ISLAND    1400   63      40/  6/  7 1020.1F
SAXON HARBOR     1300   58     160/  2/  2 1019.6S
$$

LMZ867-665-643>646-291500-
LAKE MICHIGAN

STATION/POSITION TIME  TEMP    WIND        PRES    WAVE
                       AIR SEA DIR/SP/G            HT/PER
                 (UTC) (F)     (DEG/KT/KT) (MB)    (FT/S)
CHAMBERS ISLAND  1300   69      10/  9/ 11 1017.3S
N MID LAKE BUOY  1350   68 69  100/ 14/ 17 1017.1R   3/ 4
NORTHPORT PIER   1300   69      90/  8/ 11 1017.3S
SISTER BAY       1236           CALM  /  3   N/A
ALGOMA LAKESHORE 1313          100/  8/  9   N/A
KEWAUNEE LAKESHO 1300   64      30/  5/  8 1016.2R
SHEBOYGAN LAKESH 1400   65      40/  6/  7 1016.3R
PORT WASHINGTON  1340   67      30/  6/  8 1016.3R
ATWATER BUOY     1300   68 63   70/ 10/ 14 1016.3F
MILWAUKEE LAKESH 1310   66      40/  9/ 10   N/A
S MID LAKE BUOY  1350   71 75   90/ 17/ 21 1013.2R   4/ 5
KENOSHA   LAKESH 1400   72      70/ 12/ 13 1014.2R
$$

TC  - TEMPERATURE IN CELSIUS
VSB - VISIBILITY IN STATUTE MILES
WCI - WIND CHILL INDEX
HX  - HEAT INDEX




USA.gov is the U.S. government's official web portal to all federal, state and local government web resources and services.